UKUBE-1
1 40074U 14037F 16322.82569885 .00000723 00000-0 95467-4 0 9992
2 40074 98.3380 62.4782 0005186 26.4529 333.6939 14.83287479127846
HODOYOSHI-1
1 40299U 14070B 16322.76318072 .00001624 00000-0 74429-4 0 9997
2 40299 97.4214 42.5934 0014969 110.9366 3.6083 15.21799627112783
CHUBUSAT-1
1 40300U 14070C 16322.72813649 .00001819 00000-0 86243-4 0 9999
2 40300 97.4158 40.3506 0022192 118.8979 357.3496 15.20355118112653
QSAT-EOS
1 40301U 14070D 16321.87148788 .00004293 00000-0 18810-3 0 9993
2 40301 097.4096 039.0721 0029734 121.0260 346.5055 15.22142635112524
FIREBIRD FU3
1 40377U 15003B 16322.67964601 .00002080 00000-0 94981-4 0 9998
2 40377 99.1032 98.9388 0139767 342.9396 16.7155 15.13931806 98998
FIREBIRD FU4
1 40378U 15003C 16322.67467180 .00002171 00000-0 98785-4 0 9996
2 40378 99.1034 98.9552 0139942 342.8877 16.7655 15.13950865 98993
GRIFEX
1 40379U 15003D 16322.67264251 .00001556 00000-0 75649-4 0 9991
2 40379 99.1039 97.5841 0144927 348.0097 11.7690 15.11855967 98917
NO-84
1 40654U 15025D 16322.37449022 .00011435 00000-0 22539-3 0 02897
2 40654 054.9960 100.3050 0198318 095.0245 267.3313 15.29326790047446
NO-83
1 40655U 15025E 16322.36209951 .00019347 00000-0 33065-3 0 03204
2 40655 054.9818 087.9203 0174233 101.2747 260.7816 15.36214036047594
DEORBITSAIL
1 40719U 15032E 16322.26244252 .00000693 00000-0 10842-3 0 9999
2 40719 97.9996 212.4114 0017790 103.1019 257.2178 14.75795530 73060
NUDT-PHONESAT
1 40900U 15049B 16322.81046951 .00002740 00000-0 13743-3 0 9994
2 40900 97.4447 327.9381 0013063 239.3500 120.6447 15.18102820 64370
XW-2D
1 40907U 15049J 16322.84966483 .00001130 00000-0 65478-4 0 9990
2 40907 97.4510 326.4916 0013682 219.8881 140.1347 15.14138008 64254
XW-2F
1 40910U 15049M 16322.82735347 .00001683 00000-0 94002-4 0 9993
2 40910 97.4537 326.8413 0014613 218.6850 141.3337 15.14802753 64146
XW-2B
1 40911U 15049N 16322.85128220 .00001092 00000-0 63456-4 0 9996
2 40911 97.4557 326.7559 0013583 220.0917 139.9314 15.14111241 64159
DCBB
1 40912U 15049P 16322.58562124 .00002348 00000-0 12254-3 0 9996
2 40912 97.4522 327.8280 0014874 214.2253 273.3390 15.16823055 64205
TW-1C
1 40926U 15051B 16322.83068292 .00009082 00000-0 23407-3 0 9993
2 40926 97.2578 358.2059 0012074 207.8340 238.8634 15.39350390 64373
TW-1A
1 40928U 15051D 16321.87286171 .00004470 00000-0 13587-3 0 9990
2 40928 097.2540 355.4313 0011669 237.2415 247.2277 15.34499549064120
IO-86
1 40931U 15052B 16321.67255606 .00000571 00000-0 -95404-5 0 9991
2 40931 6.0013 307.9653 0012896 113.5980 246.5443 14.76496211 61506
GomX-3
1 40949U 98067HA 16292.18357804 .08527750 12374-4 77882-3 0 9992
2 40949 51.6055 106.7696 0006699 286.1344 73.8944 16.38002265 59645
LQSat
1 40958U 15057A 16322.70737838 .00000136 00000-0 29008-4 0 9994
2 40958 98.0016 35.4737 0018921 26.6358 333.5816 14.72922955 59988
AO-85
1 40967U 15058D 16322.47522576 .00000612 00000-0 87323-4 0 03166
2 40967 064.7768 140.9900 0185193 155.0811 205.9380 14.75233909045882
ATHENOXAT-1
1 41168U 15077C 16322.31946346 .00003577 00000-0 16991-3 0 9991
2 41168 14.9970 276.2601 0012276 322.0916 95.6962 15.10762276 50949
ChubuSat-2
1 41338U 16012B 16321.49412437 .00000570 00000-0 38409-4 0 9996
2 41338 031.0044 022.9122 0013916 114.2043 246.0048 14.99569743041035
ChubuSat-3
1 41339U 16012C 16322.31754678 .00000676 00000-0 46519-4 0 9993
2 41339 31.0134 17.1832 0013704 128.5695 231.6179 14.99789676 41131
Horyu-4
1 41340U 16012D 16322.37480484 .00000892 00000-0 62659-4 0 9995
2 41340 31.0063 15.6099 0014248 135.3950 224.7834 15.00317557 41179
OUFTI-1
1 41458U 16025C 16322.82055950 .00003243 00000-0 18024-3 0 9994
2 41458 98.2059 342.1698 0177278 275.3670 82.7347 15.02126230 30839
e-st@r-II
1 41459U 16025D 16321.95861238 .00002854 00000-0 15970-3 0 9996
2 41459 098.2071 341.2431 0177171 278.5370 079.5790 15.02037520030708
AAUSAT4
1 41460U 16025E 16322.65413108 .00004239 00000-0 23752-3 0 9991
2 41460 98.2020 342.0300 0169536 274.9308 83.2515 15.02591406 30812
MinXSS
1 41474U 98067HU 16322.19489772 .00046743 00000-0 41557-3 0 9990
2 41474 51.6431 6.5208 0004052 9.6357 350.4717 15.68022929 28847
CADRE
1 41475U 98067HV 16322.72874306 .00132278 00000-0 65927-3 0 9997
2 41475 51.6352 358.7443 0007289 26.7287 333.4090 15.80939976 28994
NODES 1
1 41477U 98067HX 16322.23696466 .00025380 00000-0 26517-3 0 9991
2 41477 51.6383 8.2637 0003352 0.7229 359.3770 15.64305095 28732
NODES 2
1 41478U 98067HY 16322.56306459 .00021693 00000-0 22845-3 0 9991
2 41478 51.6382 6.6900 0003327 2.5280 357.5731 15.64206419 28788
LO-87
1 41557U 16033B 16322.78481860 .00002846 00000-0 11261-3 0 9995
2 41557 97.4843 36.1977 0015644 37.2937 111.6946 15.26184811 26174
NuSat2
1 41558U 16033C 16322.79451235 .00002882 00000-0 11451-3 0 9991
2 41558 97.4880 36.2265 0014991 37.1680 79.4967 15.26052836 26170
Lapan A3
1 41603U 16040E 16322.76510193 .00000593 00000-0 31399-4 0 9997
2 41603 97.4930 20.9082 0015303 90.8629 49.2469 15.19200720 22550
Swayam
1 41607U 16040J 16321.86481140 .00002315 00000-0 11098-3 0 9997
2 41607 097.4907 020.0146 0016400 097.7826 262.5271 15.19808827022344
Pratham
1 41783U 16059A 16322.72950784 .00000122 00000-0 33238-4 0 9998
2 41783 98.2001 19.9492 0034610 102.9874 257.5183 14.62780356 7699
OBJECT B
1 41784U 16059B 16321.75936866 .00000253 00000-0 58229-4 0 9998
2 41784 098.1978 019.0124 0033165 106.2030 254.2828 14.63140902007519
OBJECT C
1 41785U 16059C 16322.71383086 .00000055 00000-0 19980-4 0 9997
2 41785 98.1984 19.9664 0032611 102.1611 258.3247 14.63212406 7654
OBJECT D
1 41786U 16059D 16322.80067785 .00000153 00000-0 36560-4 0 9995
2 41786 98.2254 20.4755 0000968 86.5724 273.5582 14.66304986 7686
